Burtsevo, Russia

9:31 PM MSK on December 07, 2016 (GMT +0300)
Sheremetyevo

Weather History for UUEE - July, 2010

Change the Weather History Date:

Friday, July 23, 2010

  Actual Average Record
Temperature  
Mean Temperature 84 °F -  
Max Temperature 98 °F 75 °F 98 °F (2010)
Min Temperature 69 °F 56 °F 44 °F (2007)
Cooling Degree Days 18    
Growing Degree Days 34 (Base 50)    
Moisture  
Dew Point 54 °F    
Average Humidity 42    
Maximum Humidity 83    
Minimum Humidity 13    
Precipitation  
Precipitation 0.00 in - - ()
Sea Level Pressure  
Sea Level Pressure 30.02 in    
Wind  
Wind Speed 6 mph ()    
Max Wind Speed 11 mph    
Max Gust Speed 20 mph    
Visibility 6.2 miles    
Events      
Averages and records for this station are not official NWS values.
T = Trace of Precipitation, MM = Missing Value Source: Averaged Metar Reports

Daily Weather History Graph

Daily Weather History Graph

Search for Another Location

Airport or City:

Trip Planner

Search our weather history database for the weather conditions in past years. The results will help you decide how hot, cold, wet, or windy it might be!

Date:

Astronomy

Jul. 23, 2010 Rise Set
Actual Time 5:17 AM MSD 9:54 PM MSD
Civil Twilight 4:25 AM MSD 10:46 PM MSD
Nautical Twilight 2:57 AM MSD 12:12 AM MSD
Astronomical Twilight Sun does not rise Sun does not rise
Moon 8:30 PM MSD (7/23) 2:08 AM MSD (7/23)
Length of Visible Light 18h 21m
Length of Day
16h 37m
Waxing Gibbous, 93% of the Moon is Illuminated
Jul 23
Waxing Gibbous
Jul 26
Full
Aug 3
Last Quarter
Aug 10
New
Aug 16
First Quarter

Hourly Weather History & Observations

Time (MSD) Temp. Heat Index Dew Point Humidity Pressure Visibility Wind Dir Wind Speed Gust Speed Precip Events Conditions
12:00 AM 78.8 °F - 60.8 °F 54% 30.04 in - SE 8.9 mph 20.1 mph N/A   Clear
12:30 AM 77.0 °F - 60.8 °F 57% 30.04 in - ESE 6.7 mph - N/A   Clear
1:00 AM 77.0 °F - 60.8 °F 57% 30.04 in - ESE 6.7 mph - N/A   Clear
1:30 AM 77.0 °F - 60.8 °F 57% 30.04 in - ESE 6.7 mph - N/A   Clear
2:00 AM 77.0 °F - 60.8 °F 57% 30.04 in - ESE 6.7 mph - N/A   Clear
2:30 AM 75.2 °F - 60.8 °F 61% 30.04 in - ESE 6.7 mph - N/A   Clear
3:00 AM 73.4 °F - 62.6 °F 69% 30.04 in - Variable 4.5 mph - N/A   Clear
3:30 AM 71.6 °F - 62.6 °F 73% 30.04 in - Variable 2.2 mph - N/A   Clear
4:00 AM 71.6 °F - 64.4 °F 78% 30.04 in - Variable 4.5 mph - N/A   Clear
4:30 AM 71.6 °F - 64.4 °F 78% 30.06 in - Variable 4.5 mph - N/A   Clear
5:00 AM 69.8 °F - 64.4 °F 83% 30.06 in - East 4.5 mph - N/A   Clear
5:30 AM 69.8 °F - 64.4 °F 83% 30.06 in - East 6.7 mph - N/A   Clear
6:00 AM 69.8 °F - 64.4 °F 83% 30.06 in 6.2 mi East 6.7 mph - N/A   Mostly Cloudy
6:30 AM 69.8 °F - 64.4 °F 83% 30.06 in 6.2 mi East 6.7 mph - N/A   Mostly Cloudy
7:00 AM 71.6 °F - 64.4 °F 78% 30.06 in 6.2 mi East 6.7 mph - N/A   Scattered Clouds
7:30 AM 73.4 °F - 64.4 °F 73% 30.06 in 6.2 mi East 4.5 mph - N/A   Scattered Clouds
8:00 AM 77.0 °F - 62.6 °F 61% 30.06 in 6.2 mi East 6.7 mph - N/A   Scattered Clouds
8:30 AM 78.8 °F - 64.4 °F 61% 30.06 in 6.2 mi East 6.7 mph - N/A   Partly Cloudy
9:00 AM 80.6 °F 82.3 °F 64.4 °F 58% 30.04 in - ESE 6.7 mph - N/A   Clear
9:30 AM 82.4 °F 83.9 °F 64.4 °F 54% 30.04 in - ESE 6.7 mph - N/A   Clear
10:00 AM 84.2 °F 85.0 °F 62.6 °F 48% 30.04 in - SE 6.7 mph - N/A   Clear
10:30 AM 86.0 °F 86.1 °F 60.8 °F 43% 30.04 in - SSE 8.9 mph - N/A   Clear
11:00 AM 89.6 °F 88.9 °F 59.0 °F 36% 30.04 in - SSE 8.9 mph - N/A   Clear
11:30 AM 89.6 °F 88.1 °F 57.2 °F 33% 30.04 in - SSE 8.9 mph - N/A   Clear
12:00 PM 93.2 °F 90.8 °F 53.6 °F 26% 30.04 in - SE 8.9 mph - N/A   Clear
12:30 PM 93.2 °F 90.8 °F 53.6 °F 26% 30.04 in - SE 8.9 mph - N/A   Clear
1:00 PM 93.2 °F 90.8 °F 53.6 °F 26% 30.04 in - SSE 8.9 mph - N/A   Clear
1:30 PM 95.0 °F - 51.8 °F 23% 30.04 in - SE 6.7 mph 17.9 mph N/A   Clear
2:00 PM 95.0 °F - 50.0 °F 22% 30.01 in - SSE 8.9 mph - N/A   Clear
2:30 PM 96.8 °F - 46.4 °F 18% 30.01 in 6.2 mi South 6.7 mph - N/A   Scattered Clouds
3:00 PM 96.8 °F - 48.2 °F 19% 30.01 in 6.2 mi South 6.7 mph - N/A   Scattered Clouds
3:30 PM 98.6 °F - 41.0 °F 14% 30.01 in 6.2 mi SSE 11.2 mph - N/A   Scattered Clouds
4:00 PM 98.6 °F - 41.0 °F 14% 30.01 in 6.2 mi SW 11.2 mph - N/A   Scattered Clouds
4:30 PM 98.6 °F - 41.0 °F 14% 29.98 in - SSW 8.9 mph 20.1 mph N/A   Clear
5:00 PM 96.8 °F - 41.0 °F 15% 29.98 in - SSW 8.9 mph - N/A   Clear
5:30 PM 98.6 °F - 41.0 °F 14% 29.98 in - SW 4.5 mph - N/A   Clear
6:00 PM 98.6 °F - 41.0 °F 14% 29.98 in - SSW 6.7 mph - N/A   Clear
6:30 PM 96.8 °F - 37.4 °F 13% 29.98 in - South 6.7 mph - N/A   Clear
7:00 PM 96.8 °F - 37.4 °F 13% 29.95 in - SW 6.7 mph - N/A   Clear
7:30 PM 95.0 °F - 39.2 °F 14% 29.95 in - West 6.7 mph - N/A   Clear
8:00 PM 95.0 °F - 37.4 °F 13% 29.98 in - West 6.7 mph - N/A   Clear
8:30 PM 93.2 °F - 41.0 °F 16% 29.98 in - Variable 4.5 mph - N/A   Clear
9:00 PM 89.6 °F - 44.6 °F 21% 29.98 in - Variable 4.5 mph - N/A   Clear
9:30 PM 86.0 °F - 50.0 °F 29% 29.98 in - Variable 2.2 mph - N/A   Clear
10:00 PM 84.2 °F - 48.2 °F 29% 29.98 in - Variable 2.2 mph - N/A   Clear
10:30 PM 80.6 °F - 51.8 °F 37% 29.98 in - SE 4.5 mph - N/A   Clear
11:00 PM 82.4 °F - 50.0 °F 32% 29.98 in - Variable 2.2 mph - N/A   Clear
11:30 PM 80.6 °F - 51.8 °F 37% 29.98 in - Variable 2.2 mph - N/A   Clear